User: anonymous   Login
Location: Unspecified
(36.5600°N, 136.6600°E)
Time: 19:01:27
(UTC+09:00)
Language:

BlueWalker 3 - Orbit

View from above orbital plane
View from above orbital plane
View from above satellite
View from above satellite

Ground track
Ground track

The orbit data is extracted from the following two-line orbital elements,

1 53807U 22111AL  24201.86918526  .00008145  00000-0  31868-3 0  9991
2 53807  53.2369  42.9587 0008108 181.8610 178.2361 15.26694559103228
Epoch (UTC): 19 July 2024 20:51:37
Eccentricity: 0.0008108
inclination: 53.2369°
perigee height: 480 km
apogee height: 491 km
right ascension of ascending node: 42.9587°
argument of perigee: 181.8610°
revolutions per day: 15.26694559
mean anomaly at epoch: 178.2361°
orbit number at epoch: 10322

The dashed part of the orbit path shows where the satellite is in the earth's shadow,  

DLR